05-06-2023, 00:00:05,      0,    0.0,    6.2,   0.00,   0.00, 1021.7,    0.5, -999.0
05-06-2023, 00:00:15,      0,    0.0,    6.1,   0.00,   0.00, 1021.7,    0.6, -999.0
05-06-2023, 00:00:25,      0,    0.0,    6.2,   0.00,   0.00, 1021.7,    0.0, -999.0
05-06-2023, 00:00:35,      0,    0.0,    6.2,   0.00,   0.00, 1021.7,    0.2, -999.0
05-06-2023, 00:00:44,      0,    0.0,    6.2,   0.00,   0.00, 1021.7,    0.6, -999.0
05-06-2023, 00:00:55,      0,    0.0,    6.1,   0.00,   0.00, 1021.7,    0.5, -999.0
05-06-2023, 00:01:05,      0,    0.0,    6.1,   0.00,   0.00, 1021.7,    0.6, -999.0
05-06-2023, 00:01:14,      0,    0.0,    6.2,   0.00,   0.00, 1021.7,    0.5, -999.0
05-06-2023, 00:01:24,      0,    0.0,    6.1,   0.00,   0.00, 1021.7,    0.6, -999.0
05-06-2023, 00:01:35,      0,    0.0,    6.1,   0.00,   0.00, 1021.7,    0.6, -999.0
05-06-2023, 00:01:47,      0,    0.0,    6.1,   0.00,   0.00, 1021.7,    0.5, -999.0
05-06-2023, 00:01:55,      0,    0.0,    6.2,   0.00,   0.00, 1021.7,    0.2, -999.0
05-06-2023, 00:02:04,      0,    0.0,    6.1,   0.00,   0.00, 1021.7,    1.0, -999.0
05-06-2023, 00:02:14,      0,    0.0,    6.1,   0.00,   0.00, 1021.7,    0.8, -999.0
05-06-2023, 00:02:25,      0,    0.0,    6.1,   0.00,   0.00, 1021.7,    1.2, -999.0
05-06-2023, 00:02:34,      0,    0.0,    6.1,   0.00,   0.00, 1021.7,    1.0, -999.0
05-06-2023, 00:02:44,      8,    0.0,    6.1,   0.00,   0.00, 1021.7,    0.8, -999.0
05-06-2023, 00:02:54,      0,    0.0,    6.1,   0.00,   0.00, 1021.7,    0.3, -999.0
05-06-2023, 00:03:05,      0,    0.6,    6.2,   0.00,   0.00, 1021.8,    0.7, -999.0
05-06-2023, 00:03:14,      0,    0.0,    6.1,   0.00,   0.00, 1021.7,    0.8, -999.0
05-06-2023, 00:03:24,      0,    0.0,    6.1,   0.00,   0.00, 1021.7,    0.2, -999.0
05-06-2023, 00:03:34,      0,    0.0,    6.2,   0.00,   0.00, 1021.7,    0.2, -999.0
05-06-2023, 00:03:44,     15,    0.0,    6.2,   0.00,   0.00, 1021.7,    1.0, -999.0
05-06-2023, 00:03:54,      0,    0.0,    6.1,   0.00,   0.00, 1021.7,    0.4, -999.0
05-06-2023, 00:04:04,     13,    0.0,    6.1,   0.00,   0.00, 1021.7,    0.7, -999.0
05-06-2023, 00:04:14,      0,    0.0,    6.3,   0.00,   0.00, 1021.8,    0.5, -999.0
05-06-2023, 00:04:24,      0,    0.0,    6.1,   0.00,   0.00, 1021.7,    0.6, -999.0
05-06-2023, 00:04:34,     14,    0.0,    6.1,   0.00,   0.00, 1021.7,    0.8, -999.0
05-06-2023, 00:04:44,     15,    0.0,    6.2,   0.00,   0.00, 1021.7,    0.8, -999.0
05-06-2023, 00:04:54,      0,    0.0,    6.2,   0.00,   0.00, 1021.7,    0.5, -999.0
05-06-2023, 00:05:04,      0,    0.0,    6.1,   0.00,   0.00, 1021.7,    0.8, -999.0
05-06-2023, 00:05:14,     15,    0.0,    6.1,   0.00,   0.00, 1021.7,    0.3, -999.0
05-06-2023, 00:05:24,     13,    0.0,    6.1,   0.00,   0.00, 1021.7,    0.5, -999.0
05-06-2023, 00:05:34,      0,    0.0,    6.1,   0.00,   0.00, 1021.7,    0.6, -999.0
05-06-2023, 00:05:44,     15,    0.0,    6.1,   0.00,   0.00, 1021.7,    0.7, -999.0
05-06-2023, 00:05:54,      0,    0.0,    6.1,   0.00,   0.00, 1021.7,    0.5, -999.0
05-06-2023, 00:06:04,      8,    0.0,    6.1,   0.00,   0.00, 1021.7,    0.9, -999.0
05-06-2023, 00:06:14,      0,    0.0,    6.1,   0.00,   0.00, 1021.7,    0.6, -999.0
05-06-2023, 00:06:24,      0,    0.0,    6.1,   0.00,   0.00, 1021.7,    0.5, -999.0
05-06-2023, 00:06:34,      0,    0.0,    6.1,   0.00,   0.00, 1021.7,    0.5, -999.0
05-06-2023, 00:06:44,     15,    0.0,    6.1,   0.00,   0.00, 1021.7,    0.5, -999.0
05-06-2023, 00:06:54,      0,    0.0,    6.1,   0.00,   0.00, 1021.7,    0.5, -999.0
05-06-2023, 00:07:04,      0,    0.0,    6.1,   0.00,   0.00, 1021.7,    0.6, -999.0
05-06-2023, 00:07:14,      0,    0.0,    6.0,   0.00,   0.00, 1021.7,    0.4, -999.0
05-06-2023, 00:07:24,     15,    0.0,    6.1,   0.00,   0.00, 1021.7,    0.4, -999.0
05-06-2023, 00:07:34,      0,    0.0,    6.1,   0.00,   0.00, 1021.7,    0.4, -999.0
05-06-2023, 00:07:44,      0,    0.0,    6.0,   0.00,   0.00, 1021.7,    0.7, -999.0
05-06-2023, 00:07:54,      0,    0.0,    6.1,   0.00,   0.00, 1021.7,    0.7, -999.0
05-06-2023, 00:08:04,      0,    0.0,    6.1,   0.00,   0.00, 1021.7,    0.6, -999.0
05-06-2023, 00:08:14,      3,    0.0,    6.1,   0.00,   0.00, 1021.7,    0.6, -999.0
05-06-2023, 00:08:24,      0,    0.0,    6.1,   0.00,   0.00, 1021.7,    0.5, -999.0
05-06-2023, 00:08:34,      0,    0.0,    6.1,   0.00,   0.00, 1021.7,    0.5, -999.0
05-06-2023, 00:08:44,      0,    0.0,    6.1,   0.00,   0.00, 1021.7,    0.6, -999.0
05-06-2023, 00:08:53,      0,    0.0,    6.1,   0.00,   0.00, 1021.7,    0.6, -999.0
05-06-2023, 00:09:04,      0,    0.0,    6.1,   0.00,   0.00, 1021.7,    0.7, -999.0
05-06-2023, 00:09:14,      0,    0.0,    6.1,   0.00,   0.00, 1021.7,    0.8, -999.0
05-06-2023, 00:09:23,      2,    0.0,    6.1,   0.00,   0.00, 1021.7,    0.4, -999.0
05-06-2023, 00:09:34,      0,    0.0,    6.1,   0.00,   0.00, 1021.7,    0.7, -999.0
05-06-2023, 00:09:44,      0,    0.0,    6.1,   0.00,   0.00, 1021.7,    0.4, -999.0
05-06-2023, 00:09:54,     15,    0.0,    6.1,   0.00,   0.00, 1021.7,    0.5, -999.0
05-06-2023, 00:10:03,      0,    0.0,    6.1,   0.00,   0.00, 1021.7,    0.4, -999.0
05-06-2023, 00:10:14,      0,    0.0,    6.1,   0.00,   0.00, 1021.7,    0.5, -999.0
05-06-2023, 00:10:24,      0,    0.0,    6.1,   0.00,   0.00, 1021.7,    0.3, -999.0
05-06-2023, 00:10:33,      0,    0.0,    6.1,   0.00,   0.00, 1021.7,    0.4, -999.0
05-06-2023, 00:10:43,      5,    0.0,    6.1,   0.00,   0.00, 1021.7,    0.6, -999.0
05-06-2023, 00:10:54,      0,    0.0,    6.1,   0.00,   0.00, 1021.7,    0.6, -999.0
05-06-2023, 00:11:03,      0,    0.0,    6.1,   0.00,   0.00, 1021.7,    0.4, -999.0
05-06-2023, 00:11:13,      0,    0.0,    6.1,   0.00,   0.00, 1021.7,    0.5, -999.0
05-06-2023, 00:11:23,      0,    0.0,    6.0,   0.00,   0.00, 1021.7,    0.4, -999.0
05-06-2023, 00:11:34,      0,    0.0,    6.0,   0.00,   0.00, 1021.7,    0.4, -999.0
05-06-2023, 00:11:43,      0,    0.0,    6.1,   0.00,   0.00, 1021.7,    0.4, -999.0
05-06-2023, 00:11:53,     14,    0.0,    6.1,   0.00,   0.00, 1021.7,    0.7, -999.0
05-06-2023, 00:12:03,      0,    0.0,    6.0,   0.00,   0.00, 1021.7,    0.8, -999.0
05-06-2023, 00:12:13,     13,    0.0,    6.1,   0.00,   0.00, 1021.7,    0.6, -999.0
05-06-2023, 00:12:23,      0,    0.0,    6.0,   0.00,   0.00, 1021.7,    0.6, -999.0
05-06-2023, 00:12:33,      0,    0.0,    6.1,   0.00,   0.00, 1021.7,    0.5, -999.0
05-06-2023, 00:12:43,     11,    0.0,    6.0,   0.00,   0.00, 1021.7,    0.5, -999.0
05-06-2023, 00:12:53,      0,    0.0,    6.0,   0.00,   0.00, 1021.7,    0.6, -999.0
05-06-2023, 00:13:03,      0,    0.0,    6.0,   0.00,   0.00, 1021.7,    0.4, -999.0
05-06-2023, 00:13:13,      0,    0.0,    6.0,   0.00,   0.00, 1021.7,    0.5, -999.0
05-06-2023, 00:13:23,      0,    0.0,    6.0,   0.00,   0.00, 1021.7,    0.5, -999.0
05-06-2023, 00:13:33,      0,    0.0,    6.0,   0.00,   0.00, 1021.7,    0.7, -999.0
05-06-2023, 00:13:43,      0,    0.0,    6.0,   0.00,   0.00, 1021.7,    0.5, -999.0
05-06-2023, 00:13:53,      0,    0.0,    6.0,   0.00,   0.00, 1021.7,    0.5, -999.0
05-06-2023, 00:14:03,      2,    0.0,    6.0,   0.00,   0.00, 1021.7,    0.5, -999.0
05-06-2023, 00:14:13,      0,    0.0,    5.9,   0.00,   0.00, 1021.7,    0.4, -999.0
05-06-2023, 00:14:23,      0,    0.0,    6.0,   0.00,   0.00, 1021.7,    0.6, -999.0
05-06-2023, 00:14:33,      0,    0.0,    5.9,   0.00,   0.00, 1021.7,    0.4, -999.0
05-06-2023, 00:14:43,      0,    0.0,    6.0,   0.00,   0.00, 1021.7,    0.4, -999.0
05-06-2023, 00:14:53,      0,    0.0,    5.9,   0.00,   0.00, 1021.7,    0.7, -999.0
05-06-2023, 00:15:03,      0,    0.0,    5.9,   0.00,   0.00, 1021.7,    0.5, -999.0
05-06-2023, 00:15:13,      0,    0.0,    6.0,   0.00,   0.00, 1021.7,    0.5, -999.0
05-06-2023, 00:15:23,      7,    0.0,    6.0,   0.00,   0.00, 1021.7,    0.5, -999.0
05-06-2023, 00:15:33,      0,    0.0,    5.9,   0.00,   0.00, 1021.7,    0.5, -999.0
05-06-2023, 00:15:43,      0,    0.0,    5.8,   0.00,   0.00, 1021.7,    0.5, -999.0
05-06-2023, 00:15:53,      0,    0.0,    5.9,   0.00,   0.00, 1021.7,    0.4, -999.0
05-06-2023, 00:16:03,      0,    0.0,    5.9,   0.00,   0.00, 1021.7,    0.7, -999.0
05-06-2023, 00:16:13,      0,    0.0,    5.9,   0.00,   0.00, 1021.7,    0.6, -999.0
05-06-2023, 00:16:23,     13,    0.0,    5.9,   0.00,   0.00, 1021.7,    0.5, -999.0
05-06-2023, 00:16:33,      0,    0.0,    5.9,   0.00,   0.00, 1021.7,    0.6, -999.0
05-06-2023, 00:16:43,      0,    0.0,    5.9,   0.00,   0.00, 1021.7,    0.3, -999.0
05-06-2023, 00:16:53,      0,    0.0,    5.9,   0.00,   0.00, 1021.7,    0.5, -999.0
05-06-2023, 00:17:03,      0,    0.0,    5.9,   0.00,   0.00, 1021.7,    0.3, -999.0
05-06-2023, 00:17:13,      0,    0.0,    5.9,   0.00,   0.00, 1021.7,    0.4, -999.0
05-06-2023, 00:17:22,      0,    0.0,    6.0,   0.00,   0.00, 1021.7,    0.6, -999.0
05-06-2023, 00:17:33,      0,    0.0,    5.9,   0.00,   0.00, 1021.7,    0.5, -999.0
05-06-2023, 00:17:43,      0,    0.0,    5.9,   0.00,   0.00, 1021.7,    0.6, -999.0
05-06-2023, 00:17:53,      0,    0.0,    5.8,   0.00,   0.00, 1021.7,    0.6, -999.0
05-06-2023, 00:18:02,     13,    0.0,    5.9,   0.00,   0.00, 1021.7,    0.4, -999.0
05-06-2023, 00:18:13,      0,    0.0,    5.9,   0.00,   0.00, 1021.7,    0.5, -999.0
05-06-2023, 00:18:23,      0,    0.0,    6.0,   0.00,   0.00, 1021.7,    0.6, -999.0
05-06-2023, 00:18:32,      0,    0.0,    5.9,   0.00,   0.00, 1021.7,    0.6, -999.0
05-06-2023, 00:18:42,     15,    0.0,    5.9,   0.00,   0.00, 1021.7,    0.7, -999.0
05-06-2023, 00:18:53,      2,    0.0,    5.9,   0.00,   0.00, 1021.7,    0.6, -999.0
05-06-2023, 00:19:03,      0,    0.0,    6.0,   0.00,   0.00, 1021.7,    0.6, -999.0
05-06-2023, 00:19:12,     11,    0.0,    5.9,   0.00,   0.00, 1021.7,    0.6, -999.0
05-06-2023, 00:19:22,     14,    0.0,    6.0,   0.00,   0.00, 1021.7,    0.7, -999.0
05-06-2023, 00:19:33,      0,    0.0,    6.0,   0.00,   0.00, 1021.7,    0.5, -999.0
05-06-2023, 00:19:42,      0,    0.0,    6.0,   0.00,   0.00, 1021.7,    0.7, -999.0
05-06-2023, 00:19:52,     15,    0.0,    6.0,   0.00,   0.00, 1021.6,    0.4, -999.0
05-06-2023, 00:20:03,      0,    0.0,    6.0,   0.00,   0.00, 1021.6,    0.4, -999.0
05-06-2023, 00:20:12,      0,    0.0,    5.9,   0.00,   0.00, 1021.7,    0.6, -999.0
05-06-2023, 00:20:22,      0,    0.0,    5.9,   0.00,   0.00, 1021.7,    0.4, -999.0
05-06-2023, 00:20:32,      0,    0.0,    5.9,   0.00,   0.00, 1021.7,    0.5, -999.0
05-06-2023, 00:20:43,     15,    0.0,    5.9,   0.00,   0.00, 1021.7,    0.6, -999.0
05-06-2023, 00:20:52,     15,    0.0,    5.9,   0.00,   0.00, 1021.6,    0.5, -999.0
05-06-2023, 00:21:02,      0,    0.0,    5.8,   0.00,   0.00, 1021.7,    0.7, -999.0
05-06-2023, 00:21:12,      0,    0.0,    5.9,   0.00,   0.00, 1021.7,    0.2, -999.0
05-06-2023, 00:21:22,      0,    0.4,    6.0,   0.00,   0.00, 1021.7,    0.7, -999.0
05-06-2023, 00:21:32,      0,    0.2,    6.0,   0.00,   0.00, 1021.7,    0.2, -999.0
05-06-2023, 00:21:42,      0,    0.1,    6.0,   0.00,   0.00, 1021.7,    0.3, -999.0
05-06-2023, 00:21:52,      0,    0.0,    5.9,   0.00,   0.00, 1021.7,    0.3, -999.0
05-06-2023, 00:22:02,      0,    0.0,    5.9,   0.00,   0.00, 1021.6,    0.5, -999.0
05-06-2023, 00:22:12,      0,    0.0,    5.9,   0.00,   0.00, 1021.6,    0.5, -999.0
05-06-2023, 00:22:22,     10,    0.0,    5.9,   0.00,   0.00, 1021.6,    0.5, -999.0
05-06-2023, 00:22:32,      0,    0.0,    6.0,   0.00,   0.00, 1021.6,    0.6, -999.0
05-06-2023, 00:22:42,      0,    0.0,    6.0,   0.00,   0.00, 1021.6,    0.5, -999.0
05-06-2023, 00:22:52,     10,    0.0,    5.9,   0.00,   0.00, 1021.6,    0.6, -999.0
05-06-2023, 00:23:02,      0,    0.0,    6.0,   0.00,   0.00, 1021.6,    0.5, -999.0
05-06-2023, 00:23:12,      0,    0.0,    6.0,   0.00,   0.00, 1021.6,    0.6, -999.0
05-06-2023, 00:23:22,      0,    0.2,    6.0,   0.00,   0.00, 1021.7,    0.7, -999.0
05-06-2023, 00:23:32,      0,    0.0,    6.0,   0.00,   0.00, 1021.6,    0.3, -999.0
05-06-2023, 00:23:42,      0,    0.0,    5.9,   0.00,   0.00, 1021.6,    0.5, -999.0
05-06-2023, 00:23:52,      0,    0.0,    6.0,   0.00,   0.00, 1021.6,    0.9, -999.0
05-06-2023, 00:24:02,      0,    0.0,    6.0,   0.00,   0.00, 1021.6,    0.7, -999.0
05-06-2023, 00:24:12,     14,    0.0,    6.0,   0.00,   0.00, 1021.6,    0.6, -999.0
05-06-2023, 00:24:22,     14,    0.0,    5.9,   0.00,   0.00, 1021.6,    0.6, -999.0
05-06-2023, 00:24:32,      2,    0.0,    5.9,   0.00,   0.00, 1021.6,    0.7, -999.0
05-06-2023, 00:24:42,      0,    0.1,    5.9,   0.00,   0.00, 1021.6,    0.5, -999.0
05-06-2023, 00:24:52,      0,    0.2,    6.0,   0.00,   0.00, 1021.7,    0.4, -999.0
05-06-2023, 00:25:02,      0,    0.0,    5.9,   0.00,   0.00, 1021.6,    0.4, -999.0
05-06-2023, 00:25:12,      0,    0.0,    5.9,   0.00,   0.00, 1021.6,    0.5, -999.0
05-06-2023, 00:25:22,      0,    0.0,    6.0,   0.00,   0.00, 1021.6,    0.3, -999.0
05-06-2023, 00:25:32,     14,    0.0,    6.0,   0.00,   0.00, 1021.6,    0.6, -999.0
05-06-2023, 00:25:42,      0,    0.0,    6.0,   0.00,   0.00, 1021.6,    0.8, -999.0
05-06-2023, 00:25:51,      0,    0.0,    6.0,   0.00,   0.00, 1021.6,    0.8, -999.0
05-06-2023, 00:26:02,      0,    0.0,    5.9,   0.00,   0.00, 1021.6,    0.4, -999.0
05-06-2023, 00:26:12,      0,    0.0,    6.0,   0.00,   0.00, 1021.6,    0.6, -999.0
05-06-2023, 00:26:22,      0,    0.0,    5.9,   0.00,   0.00, 1021.6,    0.5, -999.0
05-06-2023, 00:26:32,      0,    0.0,    6.0,   0.00,   0.00, 1021.6,    0.6, -999.0
05-06-2023, 00:26:42,      9,    0.0,    6.0,   0.00,   0.00, 1021.6,    0.7, -999.0
05-06-2023, 00:26:52,      0,    0.0,    5.9,   0.00,   0.00, 1021.6,    0.5, -999.0
05-06-2023, 00:27:01,      0,    0.0,    6.0,   0.00,   0.00, 1021.6,    0.6, -999.0
05-06-2023, 00:27:12,      0,    0.0,    6.0,   0.00,   0.00, 1021.6,    0.5, -999.0
05-06-2023, 00:27:22,      6,    0.0,    6.0,   0.00,   0.00, 1021.7,    0.4, -999.0
05-06-2023, 00:27:32,      6,    0.0,    6.0,   0.00,   0.00, 1021.6,    0.5, -999.0
05-06-2023, 00:27:41,      1,    0.0,    6.0,   0.00,   0.00, 1021.7,    0.4, -999.0
05-06-2023, 00:27:52,      6,    0.0,    6.0,   0.00,   0.00, 1021.7,    0.5, -999.0
05-06-2023, 00:28:02,      6,    0.0,    6.0,   0.00,   0.00, 1021.6,    0.5, -999.0
05-06-2023, 00:28:11,      6,    0.0,    6.0,   0.00,   0.00, 1021.6,    0.6, -999.0
05-06-2023, 00:28:21,      6,    0.0,    6.0,   0.00,   0.00, 1021.6,    0.5, -999.0
05-06-2023, 00:28:32,      6,    0.0,    5.9,   0.00,   0.00, 1021.6,    0.5, -999.0
05-06-2023, 00:28:41,      7,    0.0,    5.9,   0.00,   0.00, 1021.7,    1.0, -999.0
05-06-2023, 00:28:51,      7,    0.0,    5.9,   0.00,   0.00, 1021.7,    0.8, -999.0
05-06-2023, 00:29:01,      7,    0.0,    5.9,   0.00,   0.00, 1021.7,    0.3, -999.0
05-06-2023, 00:29:12,      7,    0.0,    5.9,   0.00,   0.00, 1021.7,    0.0, -999.0
05-06-2023, 00:29:21,      7,    0.0,    6.0,   0.00,   0.00, 1021.7,    0.5, -999.0
05-06-2023, 00:29:31,      7,    0.0,    5.9,   0.00,   0.00, 1021.7,    0.1, -999.0
05-06-2023, 00:29:42,      7,    0.0,    5.9,   0.00,   0.00, 1021.7,    0.6, -999.0
05-06-2023, 00:29:51,      6,    0.0,    5.9,   0.00,   0.00, 1021.6,    0.4, -999.0
05-06-2023, 00:30:01,      6,    0.0,    5.9,   0.00,   0.00, 1021.7,    0.8, -999.0
05-06-2023, 00:30:11,      9,    0.0,    5.9,   0.00,   0.00, 1021.7,    0.6, -999.0
05-06-2023, 00:30:21,      7,    0.0,    5.8,   0.00,   0.00, 1021.7,    0.6, -999.0
05-06-2023, 00:30:31,      7,    0.0,    5.8,   0.00,   0.00, 1021.7,    0.6, -999.0
05-06-2023, 00:30:41,      7,    0.0,    5.7,   0.00,   0.00, 1021.7,    0.3, -999.0
05-06-2023, 00:30:51,      7,    0.0,    5.8,   0.00,   0.00, 1021.7,    0.5, -999.0
05-06-2023, 00:31:01,      7,    0.0,    5.8,   0.00,   0.00, 1021.7,    0.5, -999.0
05-06-2023, 00:31:11,      7,    0.0,    5.8,   0.00,   0.00, 1021.7,    0.7, -999.0
05-06-2023, 00:31:21,      7,    0.0,    5.9,   0.00,   0.00, 1021.7,    0.6, -999.0
05-06-2023, 00:31:31,      7,    0.0,    5.9,   0.00,   0.00, 1021.7,    0.5, -999.0
05-06-2023, 00:31:41,      7,    0.0,    5.8,   0.00,   0.00, 1021.7,    0.6, -999.0
05-06-2023, 00:31:51,      7,    0.0,    5.8,   0.00,   0.00, 1021.7,    0.4, -999.0
05-06-2023, 00:32:01,      7,    0.0,    5.8,   0.00,   0.00, 1021.7,    0.5, -999.0
05-06-2023, 00:32:11,      7,    0.0,    5.8,   0.00,   0.00, 1021.7,    0.4, -999.0
05-06-2023, 00:32:21,      7,    0.0,    5.8,   0.00,   0.00, 1021.7,    0.7, -999.0
05-06-2023, 00:32:31,      7,    0.0,    5.7,   0.00,   0.00, 1021.7,    0.3, -999.0
05-06-2023, 00:32:41,      7,    0.0,    5.8,   0.00,   0.00, 1021.7,    0.7, -999.0
05-06-2023, 00:32:51,      7,    0.0,    5.8,   0.00,   0.00, 1021.7,    0.6, -999.0
05-06-2023, 00:33:01,      7,    0.0,    5.9,   0.00,   0.00, 1021.7,    0.6, -999.0
05-06-2023, 00:33:11,      6,    0.0,    5.8,   0.00,   0.00, 1021.7,    0.6, -999.0
05-06-2023, 00:33:21,      7,    0.0,    5.7,   0.00,   0.00, 1021.7,    0.7, -999.0
05-06-2023, 00:33:31,      7,    0.0,    5.7,   0.00,   0.00, 1021.7,    0.5, -999.0
05-06-2023, 00:33:41,      6,    0.0,    5.8,   0.00,   0.00, 1021.7,    0.7, -999.0
05-06-2023, 00:33:51,      7,    0.0,    5.8,   0.00,   0.00, 1021.7,    0.4, -999.0
05-06-2023, 00:34:02,      7,    0.0,    5.8,   0.00,   0.00, 1021.7,    0.4, -999.0
05-06-2023, 00:34:11,      7,    0.0,    5.8,   0.00,   0.00, 1021.7,    0.6, -999.0
05-06-2023, 00:34:21,      7,    0.0,    5.8,   0.00,   0.00, 1021.7,    0.5, -999.0
05-06-2023, 00:34:31,      7,    0.0,    5.8,   0.00,   0.00, 1021.7,    0.6, -999.0
05-06-2023, 00:34:41,      7,    0.0,    5.7,   0.00,   0.00, 1021.7,    0.6, -999.0
05-06-2023, 00:34:51,      7,    0.0,    5.8,   0.00,   0.00, 1021.7,    0.4, -999.0
05-06-2023, 00:35:01,      7,    0.0,    5.8,   0.00,   0.00, 1021.7,    0.4, -999.0
05-06-2023, 00:35:11,      6,    0.0,    5.8,   0.00,   0.00, 1021.7,    0.4, -999.0
05-06-2023, 00:35:21,      7,    0.0,    5.9,   0.00,   0.00, 1021.7,    0.5, -999.0
05-06-2023, 00:35:30,      7,    0.0,    5.8,   0.00,   0.00, 1021.7,    0.7, -999.0
05-06-2023, 00:35:41,      7,    0.0,    5.7,   0.00,   0.00, 1021.7,    0.5, -999.0
05-06-2023, 00:35:51,      7,    0.0,    5.8,   0.00,   0.00, 1021.7,    0.5, -999.0
05-06-2023, 00:36:00,      7,    0.0,    5.9,   0.00,   0.00, 1021.7,    0.5, -999.0
05-06-2023, 00:36:10,      7,    0.0,    5.8,   0.00,   0.00, 1021.7,    0.5, -999.0
05-06-2023, 00:36:21,      7,    0.0,    5.8,   0.00,   0.00, 1021.7,    0.6, -999.0
05-06-2023, 00:36:31,      7,    0.0,    5.8,   0.00,   0.00, 1021.7,    0.5, -999.0
05-06-2023, 00:36:40,      7,    0.0,    5.8,   0.00,   0.00, 1021.7,    0.4, -999.0
05-06-2023, 00:36:50,      7,    0.0,    5.6,   0.00,   0.00, 1021.7,    0.4, -999.0
05-06-2023, 00:37:01,      7,    0.0,    5.8,   0.00,   0.00, 1021.7,    0.4, -999.0
05-06-2023, 00:37:10,      7,    0.0,    5.7,   0.00,   0.00, 1021.7,    0.4, -999.0
05-06-2023, 00:37:20,      6,    0.0,    5.9,   0.00,   0.00, 1021.7,    0.4, -999.0
05-06-2023, 00:37:31,      7,    0.0,    5.8,   0.00,   0.00, 1021.7,    0.5, -999.0
05-06-2023, 00:37:41,      7,    0.0,    5.8,   0.00,   0.00, 1021.6,    0.4, -999.0
05-06-2023, 00:37:50,      7,    0.0,    5.7,   0.00,   0.00, 1021.7,    0.3, -999.0
05-06-2023, 00:38:00,      7,    0.0,    5.8,   0.00,   0.00, 1021.7,    0.7, -999.0
05-06-2023, 00:38:11,      6,    0.0,    5.8,   0.00,   0.00, 1021.7,    0.5, -999.0
05-06-2023, 00:38:20,      7,    0.0,    5.8,   0.00,   0.00, 1021.7,    0.5, -999.0
05-06-2023, 00:38:30,      7,    0.0,    5.9,   0.00,   0.00, 1021.7,    0.3, -999.0
05-06-2023, 00:38:40,      6,    0.0,    5.9,   0.00,   0.00, 1021.6,    0.8, -999.0
05-06-2023, 00:38:51,      7,    0.0,    5.9,   0.00,   0.00, 1021.7,    0.7, -999.0
05-06-2023, 00:39:00,      7,    0.0,    6.0,   0.00,   0.00, 1021.6,    0.4, -999.0
05-06-2023, 00:39:10,      7,    0.0,    5.9,   0.00,   0.00, 1021.7,    0.7, -999.0
05-06-2023, 00:39:20,      7,    0.0,    5.9,   0.00,   0.00, 1021.7,    0.3, -999.0
05-06-2023, 00:39:30,      7,    0.0,    5.9,   0.00,   0.00, 1021.7,    0.7, -999.0
05-06-2023, 00:39:40,      6,    0.0,    5.9,   0.00,   0.00, 1021.7,    0.1, -999.0
05-06-2023, 00:39:50,      7,    0.0,    5.8,   0.00,   0.00, 1021.7,    0.5, -999.0
05-06-2023, 00:40:00,      7,    0.0,    5.9,   0.00,   0.00, 1021.7,    0.5, -999.0
05-06-2023, 00:40:10,      8,    0.0,    5.8,   0.00,   0.00, 1021.7,    0.6, -999.0
05-06-2023, 00:40:20,      7,    0.0,    5.9,   0.00,   0.00, 1021.7,    0.3, -999.0
05-06-2023, 00:40:30,      7,    0.0,    5.8,   0.00,   0.00, 1021.6,    0.4, -999.0
05-06-2023, 00:40:40,      7,    0.0,    5.7,   0.00,   0.00, 1021.6,    0.5, -999.0
05-06-2023, 00:40:50,      7,    0.0,    5.8,   0.00,   0.00, 1021.6,    0.3, -999.0
05-06-2023, 00:41:00,      7,    0.0,    5.8,   0.00,   0.00, 1021.7,    0.3, -999.0
05-06-2023, 00:41:10,      7,    0.0,    5.7,   0.00,   0.00, 1021.6,    0.6, -999.0
05-06-2023, 00:41:20,      6,    0.0,    5.8,   0.00,   0.00, 1021.6,    1.1, -999.0
05-06-2023, 00:41:30,      7,    0.0,    5.8,   0.00,   0.00, 1021.6,    0.7, -999.0
05-06-2023, 00:41:40,      7,    0.0,    5.9,   0.00,   0.00, 1021.6,    0.1, -999.0
05-06-2023, 00:41:50,      7,    0.0,    5.9,   0.00,   0.00, 1021.7,    0.7, -999.0
05-06-2023, 00:42:00,      7,    0.0,    5.9,   0.00,   0.00, 1021.7,    0.9, -999.0
05-06-2023, 00:42:10,      7,    0.0,    5.8,   0.00,   0.00, 1021.7,    0.7, -999.0
05-06-2023, 00:42:20,      7,    0.0,    5.8,   0.00,   0.00, 1021.7,    1.3, -999.0
05-06-2023, 00:42:30,      7,    0.0,    5.8,   0.00,   0.00, 1021.6,    0.8, -999.0
05-06-2023, 00:42:40,      7,    0.0,    5.8,   0.00,   0.00, 1021.6,    0.7, -999.0
05-06-2023, 00:42:50,      7,    0.0,    5.8,   0.00,   0.00, 1021.7,    0.5, -999.0
05-06-2023, 00:43:00,      7,    0.0,    5.8,   0.00,   0.00, 1021.6,    1.0, -999.0
05-06-2023, 00:43:10,      7,    0.0,    5.8,   0.00,   0.00, 1021.7,    0.5, -999.0
05-06-2023, 00:43:20,      7,    0.0,    5.8,   0.00,   0.00, 1021.6,    0.8, -999.0
05-06-2023, 00:43:30,      7,    0.0,    5.7,   0.00,   0.00, 1021.6,    1.0, -999.0
05-06-2023, 00:43:40,      7,    0.0,    5.7,   0.00,   0.00, 1021.6,    0.8, -999.0
05-06-2023, 00:43:50,      7,    0.0,    5.7,   0.00,   0.00, 1021.6,    0.7, -999.0
05-06-2023, 00:44:00,      6,    0.0,    5.7,   0.00,   0.00, 1021.6,    0.5, -999.0
05-06-2023, 00:44:10,      7,    0.0,    5.8,   0.00,   0.00, 1021.6,    0.8, -999.0
05-06-2023, 00:44:20,      6,    0.0,    5.6,   0.00,   0.00, 1021.6,    0.9, -999.0
05-06-2023, 00:44:30,      7,    0.0,    5.7,   0.00,   0.00, 1021.6,    0.6, -999.0
05-06-2023, 00:44:39,      7,    0.0,    5.7,   0.00,   0.00, 1021.7,    1.0, -999.0
05-06-2023, 00:44:50,      6,    0.0,    5.6,   0.00,   0.00, 1021.7,    0.9, -999.0
05-06-2023, 00:45:00,      7,    0.0,    5.7,   0.00,   0.00, 1021.6,    0.9, -999.0
05-06-2023, 00:45:10,      7,    0.0,    5.6,   0.00,   0.00, 1021.6,    0.2, -999.0
05-06-2023, 00:45:19,      7,    0.0,    5.6,   0.00,   0.00, 1021.6,    0.7, -999.0
05-06-2023, 00:45:30,      7,    0.0,    5.6,   0.00,   0.00, 1021.7,    0.8, -999.0
05-06-2023, 00:45:40,      7,    0.0,    5.6,   0.00,   0.00, 1021.6,    1.0, -999.0
05-06-2023, 00:45:49,      7,    0.0,    5.7,   0.00,   0.00, 1021.6,    1.1, -999.0
05-06-2023, 00:45:59,      7,    0.0,    5.7,   0.00,   0.00, 1021.7,    0.5, -999.0
05-06-2023, 00:46:10,      7,    0.0,    5.7,   0.00,   0.00, 1021.6,    0.3, -999.0
05-06-2023, 00:46:19,      7,    0.0,    5.7,   0.00,   0.00, 1021.6,    0.8, -999.0
05-06-2023, 00:46:29,      6,    0.0,    5.7,   0.00,   0.00, 1021.7,    0.5, -999.0
05-06-2023, 00:46:39,      7,    0.0,    5.7,   0.00,   0.00, 1021.6,    0.2, -999.0
05-06-2023, 00:46:50,      7,    0.0,    5.7,   0.00,   0.00, 1021.6,    0.2, -999.0